Location: Innerarity Island Observatory
(30.3139°N, 87.4867°W)
Time: 20:30:33
(UTC-05:00)

OPAL - Visible Passes

Search period start: 16 September 2014 00:00
Search period end: 26 September 2014 00:00
Orbit: 745 x 796 km, 100.2° (Epoch: 15 September)

Date Brightness Start Highest point End Pass type
(mag) Time Alt. Az. Time Alt. Az. Time Alt. Az.
16 Sep 7.4 04:53:57 10° SSE 04:59:05 80° WSW 05:04:18 10° NNW visible
17 Sep 8.7 04:19:10 10° SE 04:24:00 43° ENE 04:28:53 10° N visible
17 Sep 8.9 05:59:40 10° SW 06:02:58 17° W 06:06:18 10° WNW visible
18 Sep 10.0 03:45:33 10° ESE 03:49:05 19° ENE 03:52:39 10° NNE visible
18 Sep 7.9 05:22:46 10° S 05:27:35 41° W 05:32:29 10° NNW visible
19 Sep 7.5 04:47:13 10° SSE 04:52:22 82° ENE 04:57:35 10° NNW visible
20 Sep 9.1 04:12:41 10° SE 04:17:19 35° ENE 04:22:00 10° N visible
20 Sep 8.7 05:52:18 10° SSW 05:56:11 22° W 06:00:07 10° NW visible
21 Sep 10.3 03:39:32 10° E 03:42:28 15° ENE 03:45:25 10° NNE visible
21 Sep 7.6 05:15:50 10° S 05:20:50 52° WSW 05:25:55 10° NNW visible
21 Sep 10.9 19:13:38 10° NW 19:14:48 11° WNW 19:15:58 10° WNW visible
22 Sep 7.9 04:40:33 10° SSE 04:45:40 66° ENE 04:50:50 10° N visible
23 Sep 9.4 04:06:18 10° SE 04:10:40 28° ENE 04:15:04 10° N visible
23 Sep 8.4 05:45:05 10° SSW 05:49:24 27° W 05:53:46 10° NW visible
24 Sep 10.5 03:33:48 10° E 03:35:51 12° ENE 03:37:55 10° NE visible
24 Sep 7.5 05:08:59 10° S 05:14:06 65° WSW 05:19:18 10° NNW visible
24 Sep 10.6 19:05:46 10° NW 19:08:12 14° WNW 19:10:36 10° W visible
25 Sep 8.3 04:33:57 10° SSE 04:38:58 53° ENE 04:44:02 10° N visible
25 Sep 9.1 06:15:28 10° SW 06:18:03 14° W 06:20:39 10° WNW visible
